Location: Brno
(49.2000°N, 16.6330°E)
Time: 23:10:20
(UTC+02:00)

Cosmos 2227 - Visible Passes

Search period start: 22 June 2018 00:00
Search period end: 02 July 2018 00:00
Orbit: 834 x 862 km, 71.0° (Epoch: 22 June)

Date Brightness Start Highest point End Pass type
(mag) Time Alt. Az. Time Alt. Az. Time Alt. Az.
22 Jun 7.7 02:30:37 10° N 02:32:56 12° NNE 02:35:15 10° NE visible
22 Jun 7.6 22:42:23 10° WNW 22:45:25 14° NNW 22:48:28 10° N visible
23 Jun 7.6 02:17:31 10° N 02:19:48 12° NNE 02:22:03 10° NE visible
23 Jun 6.0 04:00:24 10° NNW 04:05:46 38° NE 04:11:06 10° ESE visible
23 Jun 7.6 22:29:12 10° WNW 22:32:17 15° NNW 22:35:22 10° N visible
24 Jun 7.6 02:04:25 10° N 02:06:39 12° NNE 02:08:52 10° NE visible
24 Jun 6.0 03:47:18 10° NNW 03:52:38 38° NE 03:57:58 10° ESE visible
24 Jun 7.5 22:16:01 10° WNW 22:19:08 15° NNW 22:22:16 10° N visible
25 Jun 7.5 01:51:20 10° N 01:53:30 12° NNE 01:55:41 10° NE visible
25 Jun 6.0 03:34:10 10° NNW 03:39:31 37° NE 03:44:50 10° ESE visible
25 Jun 7.4 22:02:51 10° WNW 22:06:00 15° NNW 22:09:10 10° N visible
26 Jun 7.5 01:38:13 10° N 01:40:22 12° NNE 01:42:29 10° NE visible
26 Jun 6.0 03:21:04 10° NNW 03:26:23 37° NE 03:31:41 10° ESE visible
26 Jun 7.4 21:49:41 10° WNW 21:52:52 15° NNW 21:56:04 10° N visible
27 Jun 7.4 01:25:08 10° N 01:27:14 12° NNE 01:29:19 10° NE visible
27 Jun 6.0 03:07:57 10° NNW 03:13:15 36° NE 03:18:32 10° ESE visible
28 Jun 7.4 01:12:02 10° N 01:14:05 12° NNE 01:16:07 10° NE visible
28 Jun 5.9 02:54:50 10° NNW 03:00:08 36° NE 03:05:24 10° ESE visible
29 Jun 7.3 00:58:57 10° N 01:00:56 12° NNE 01:02:56 10° NE visible
29 Jun 5.9 02:41:43 10° NNW 02:47:00 35° NE 02:52:16 10° ESE visible
30 Jun 7.3 00:45:51 10° N 00:47:48 12° NNE 00:49:44 10° NE visible
30 Jun 5.9 02:28:36 10° NNW 02:33:52 35° NE 02:39:07 10° ESE visible
01 Jul 7.2 00:32:46 10° N 00:34:40 11° NNE 00:36:33 10° NE visible
01 Jul 5.9 02:15:29 10° NNW 02:20:44 35° NE 02:25:59 10° ESE visible
01 Jul 4.5 03:59:36 10° NW 04:05:10 51° WSW 04:10:42 10° S visible
